TimeCST,TemperatureF,Dew PointF,Humidity,Sea Level PressureIn,VisibilityMPH,Wind Direction,Wind SpeedMPH,Gust SpeedMPH,PrecipitationIn,Events,Conditions,WindDirDegrees,DateUTC
12:53 AM,66.9,63.0,87,30.04,8.0,East,9.2,-,N/A,,Clear,90,2013-02-09 06:53:00
1:53 AM,68.0,63.0,84,30.03,8.0,East,8.1,-,N/A,,Clear,100,2013-02-09 07:53:00
2:41 AM,69.8,64.4,83,30.01,8.0,ESE,10.4,-,N/A,,Mostly Cloudy,120,2013-02-09 08:41:00
2:48 AM,69.8,64.4,83,30.01,8.0,ESE,11.5,-,N/A,,Mostly Cloudy,110,2013-02-09 08:48:00
2:53 AM,69.1,64.9,87,30.01,8.0,ESE,11.5,-,N/A,,Overcast,120,2013-02-09 08:53:00
3:28 AM,69.8,64.4,83,30.00,7.0,ESE,10.4,-,N/A,,Scattered Clouds,110,2013-02-09 09:28:00
3:53 AM,69.1,64.9,87,29.99,7.0,ESE,11.5,-,N/A,,Partly Cloudy,110,2013-02-09 09:53:00
4:36 AM,69.8,64.4,83,29.98,7.0,East,11.5,-,N/A,,Overcast,100,2013-02-09 10:36:00
4:49 AM,69.8,66.2,88,29.99,7.0,ESE,10.4,-,N/A,,Overcast,110,2013-02-09 10:49:00
4:53 AM,70.0,66.0,87,29.98,7.0,ESE,9.2,-,N/A,,Overcast,110,2013-02-09 10:53:00
5:03 AM,69.8,66.2,88,29.98,7.0,ESE,11.5,-,N/A,,Overcast,110,2013-02-09 11:03:00
5:53 AM,70.0,66.0,87,29.98,7.0,East,11.5,-,N/A,,Overcast,100,2013-02-09 11:53:00
6:44 AM,71.6,66.2,83,29.98,7.0,East,10.4,-,N/A,,Overcast,100,2013-02-09 12:44:00
6:53 AM,71.1,66.9,87,29.99,7.0,East,10.4,-,N/A,,Overcast,100,2013-02-09 12:53:00
7:23 AM,71.6,66.2,83,29.99,5.0,ESE,10.4,-,N/A,,Overcast,120,2013-02-09 13:23:00
7:53 AM,72.0,66.9,84,29.99,6.0,SE,12.7,-,N/A,,Haze,130,2013-02-09 13:53:00
8:53 AM,73.9,68.0,82,30.00,6.0,ESE,15.0,-,N/A,,Haze,120,2013-02-09 14:53:00
9:02 AM,75.2,69.8,83,29.99,6.0,ESE,16.1,23.0,N/A,,Haze,120,2013-02-09 15:02:00
9:53 AM,75.0,68.0,79,30.00,7.0,ESE,15.0,-,N/A,,Overcast,120,2013-02-09 15:53:00
10:39 AM,75.2,69.8,83,30.00,7.0,SE,17.3,24.2,N/A,,Overcast,130,2013-02-09 16:39:00
10:53 AM,77.0,69.1,76,29.99,7.0,SE,20.7,-,N/A,,Overcast,130,2013-02-09 16:53:00
11:03 AM,77.0,69.8,78,29.99,7.0,SE,20.7,26.5,N/A,,Mostly Cloudy,130,2013-02-09 17:03:00
11:53 AM,77.0,69.1,76,29.97,7.0,SE,21.9,27.6,N/A,,Overcast,130,2013-02-09 17:53:00
12:13 PM,75.2,69.8,83,29.96,6.0,SE,16.1,25.3,0.00,Rain,Light Rain,140,2013-02-09 18:13:00
12:32 PM,75.2,69.8,83,29.95,7.0,SE,17.3,24.2,0.00,,Overcast,140,2013-02-09 18:32:00
12:53 PM,78.1,69.1,74,29.94,7.0,SE,18.4,26.5,0.00,,Overcast,140,2013-02-09 18:53:00
1:10 PM,77.0,69.8,78,29.92,6.0,SE,21.9,26.5,0.00,Rain,Light Rain,130,2013-02-09 19:10:00
1:53 PM,78.1,70.0,76,29.90,7.0,SE,18.4,-,0.00,,Overcast,140,2013-02-09 19:53:00
2:35 PM,80.6,69.8,70,29.87,7.0,SE,18.4,26.5,N/A,,Mostly Cloudy,140,2013-02-09 20:35:00
2:46 PM,80.6,69.8,70,29.86,7.0,SSE,19.6,28.8,N/A,,Overcast,150,2013-02-09 20:46:00
2:53 PM,79.0,70.0,74,29.86,7.0,SSE,19.6,28.8,N/A,,Overcast,150,2013-02-09 20:53:00
3:53 PM,79.0,69.1,72,29.83,7.0,SSE,23.0,29.9,N/A,,Mostly Cloudy,150,2013-02-09 21:53:00
4:16 PM,78.8,69.8,74,29.84,7.0,SSE,19.6,28.8,N/A,,Mostly Cloudy,150,2013-02-09 22:16:00
4:53 PM,78.1,69.1,74,29.83,7.0,SSE,21.9,27.6,N/A,,Mostly Cloudy,150,2013-02-09 22:53:00
5:02 PM,77.0,69.8,78,29.83,7.0,SSE,17.3,27.6,N/A,,Overcast,150,2013-02-09 23:02:00
5:53 PM,75.9,69.1,79,29.83,7.0,SE,18.4,-,N/A,,Overcast,140,2013-02-09 23:53:00
6:47 PM,73.4,69.8,88,29.82,7.0,SSE,16.1,-,N/A,,Scattered Clouds,150,2013-02-10 00:47:00
6:53 PM,73.9,69.1,85,29.82,7.0,SSE,18.4,-,N/A,,Scattered Clouds,150,2013-02-10 00:53:00
7:53 PM,73.0,69.1,87,29.82,7.0,SSE,17.3,-,N/A,,Clear,150,2013-02-10 01:53:00
8:53 PM,73.0,69.1,87,29.82,7.0,SSE,19.6,-,N/A,,Partly Cloudy,150,2013-02-10 02:53:00
9:53 PM,73.9,69.1,85,29.82,7.0,SSE,20.7,28.8,N/A,,Clear,150,2013-02-10 03:53:00
10:53 PM,75.0,69.1,82,29.83,8.0,South,17.3,27.6,N/A,,Clear,170,2013-02-10 04:53:00
11:53 PM,75.0,69.1,82,29.83,8.0,South,20.7,28.8,N/A,,Clear,170,2013-02-10 05:53:00